International Skating Union - Official Site

Essent ISU World Cup Heerenveen
March 12-14, 2010

Draw | Lap Times | Index | World Cup

Referee: Jacques  DE KONING  (NED)
Starter: Matthijs  DE VRIJER  (NED)
StartTime: EndTime: Air Temp: Ice Temp: Humidity:
15:20 16:48
Result 5000m Men Division A
Rankings as of Mar 13 2010 5:23PM
Rank: No.: Name: Nation: Time: Behind: Points:
1 36 Håvard  BØKKO NOR NOR 6:20.52200m - 18.47 - (18.4)
600m - 47.82 - (29.3)
1000m - 1:17.81 - (29.9)
1400m - 1:47.82 - (30.0)
1800m - 2:17.74 - (29.9)
2200m - 2:47.67 - (29.9)
2600m - 3:17.83 - (30.1)
3000m - 3:48.04 - (30.2)
3400m - 4:18.39 - (30.3)
3800m - 4:48.77 - (30.3)
4200m - 5:19.20 - (30.4)
4600m - 5:50.00 - (30.8)
5000m - 6:20.52 - (30.5)
150
2 40 Sverre  HAUGLI NOR NOR 6:21.49200m - 19.05 - (19.0)
600m - 47.88 - (28.8)
1000m - 1:17.35 - (29.4)
1400m - 1:47.19 - (29.8)
1800m - 2:17.33 - (30.1)
2200m - 2:47.58 - (30.2)
2600m - 3:17.89 - (30.3)
3000m - 3:48.11 - (30.2)
3400m - 4:18.43 - (30.3)
3800m - 4:48.94 - (30.5)
4200m - 5:19.46 - (30.5)
4600m - 5:50.35 - (30.8)
5000m - 6:21.49 - (31.1)
0.97 120
3 48 Ivan  SKOBREV RUS RUS 6:23.24200m - 18.75 - (18.7)
600m - 48.04 - (29.3)
1000m - 1:17.84 - (29.7)
1400m - 1:47.88 - (30.0)
1800m - 2:18.12 - (30.2)
2200m - 2:48.42 - (30.3)
2600m - 3:18.86 - (30.4)
3000m - 3:49.45 - (30.5)
3400m - 4:20.14 - (30.6)
3800m - 4:50.80 - (30.6)
4200m - 5:21.60 - (30.8)
4600m - 5:52.35 - (30.7)
5000m - 6:23.24 - (30.8)
2.72 105
4 22 Jan  BLOKHUIJSEN NED NED 6:26.24200m - 18.55 - (18.5)
600m - 48.08 - (29.5)
1000m - 1:18.15 - (30.0)
1400m - 1:48.22 - (30.0)
1800m - 2:18.09 - (29.8)
2200m - 2:48.40 - (30.3)
2600m - 3:19.08 - (30.6)
3000m - 3:49.91 - (30.8)
3400m - 4:21.16 - (31.2)
3800m - 4:52.52 - (31.3)
4200m - 5:23.68 - (31.1)
4600m - 5:54.88 - (31.2)
5000m - 6:26.24 - (31.3)
5.72 90
5 32 Wouter  OLDE HEUVEL NED NED 6:26.66200m - 18.78 - (18.7)
600m - 47.74 - (28.9)
1000m - 1:17.16 - (29.4)
1400m - 1:47.15 - (29.9)
1800m - 2:17.07 - (29.9)
2200m - 2:47.39 - (30.3)
2600m - 3:18.02 - (30.6)
3000m - 3:48.99 - (30.9)
3400m - 4:20.37 - (31.3)
3800m - 4:51.97 - (31.6)
4200m - 5:23.55 - (31.5)
4600m - 5:55.26 - (31.7)
5000m - 6:26.66 - (31.4)
6.14 75
6 37 Henrik  CHRISTIANSEN NOR NOR 6:28.45200m - 19.15 - (19.1)
600m - 49.10 - (29.9)
1000m - 1:19.42 - (30.3)
1400m - 1:49.72 - (30.3)
1800m - 2:19.76 - (30.0)
2200m - 2:49.92 - (30.1)
2600m - 3:20.35 - (30.4)
3000m - 3:51.10 - (30.7)
3400m - 4:22.04 - (30.9)
3800m - 4:53.34 - (31.3)
4200m - 5:24.79 - (31.4)
4600m - 5:56.61 - (31.8)
5000m - 6:28.45 - (31.8)
7.93 45
7 39 Øystein  GRØDUM NOR NOR 6:29.35200m - 19.40 - (19.4)
600m - 48.84 - (29.4)
1000m - 1:18.29 - (29.4)
1400m - 1:48.08 - (29.7)
1800m - 2:18.07 - (29.9)
2200m - 2:48.46 - (30.3)
2600m - 3:19.08 - (30.6)
3000m - 3:50.39 - (31.3)
3400m - 4:21.92 - (31.5)
3800m - 4:54.05 - (32.1)
4200m - 5:25.79 - (31.7)
4600m - 5:57.52 - (31.7)
5000m - 6:29.35 - (31.8)
8.83 40
8 25 Bob  de JONG NED NED 6:29.45200m - 19.24 - (19.2)
600m - 49.23 - (29.9)
1000m - 1:20.23 - (31.0)
1400m - 1:51.63 - (31.4)
1800m - 2:22.51 - (30.8)
2200m - 2:53.42 - (30.9)
2600m - 3:24.45 - (31.0)
3000m - 3:55.52 - (31.0)
3400m - 4:26.47 - (30.9)
3800m - 4:57.30 - (30.8)
4200m - 5:28.02 - (30.7)
4600m - 5:58.57 - (30.5)
5000m - 6:29.45 - (30.8)
8.93 36
9 16 Enrico  FABRIS ITA ITA 6:32.33200m - 18.74 - (18.7)
600m - 48.28 - (29.5)
1000m - 1:18.52 - (30.2)
1400m - 1:49.38 - (30.8)
1800m - 2:20.37 - (30.9)
2200m - 2:51.53 - (31.1)
2600m - 3:22.85 - (31.3)
3000m - 3:54.09 - (31.2)
3400m - 4:25.53 - (31.4)
3800m - 4:57.06 - (31.5)
4200m - 5:28.57 - (31.5)
4600m - 6:00.33 - (31.7)
5000m - 6:32.33 - (32.0)
11.81 32
10 35 Carl  VERHEIJEN NED NED 6:33.14200m - 19.36 - (19.3)
600m - 49.19 - (29.8)
1000m - 1:19.85 - (30.6)
1400m - 1:50.83 - (30.9)
1800m - 2:21.68 - (30.8)
2200m - 2:52.81 - (31.1)
2600m - 3:23.91 - (31.1)
3000m - 3:55.26 - (31.3)
3400m - 4:26.60 - (31.3)
3800m - 4:57.74 - (31.1)
4200m - 5:28.25 - (30.5)
4600m - 5:58.41 - (30.1)
5000m - 6:33.14 - (34.7)
12.62 28
11 42 Shane  DOBBIN NZL NZL 6:33.85200m - 19.43 - (19.4)
600m - 49.85 - (30.4)
1000m - 1:21.02 - (31.1)
1400m - 1:51.85 - (30.8)
1800m - 2:22.40 - (30.5)
2200m - 2:53.04 - (30.6)
2600m - 3:23.82 - (30.7)
3000m - 3:54.71 - (30.9)
3400m - 4:25.78 - (31.0)
3800m - 4:57.25 - (31.4)
4200m - 5:29.11 - (31.8)
4600m - 6:01.47 - (32.3)
5000m - 6:33.85 - (32.3)
13.33 24
12 43 Slawomir  CHMURA POL POL 6:34.31200m - 19.98 - (19.9)
600m - 50.69 - (30.7)
1000m - 1:21.58 - (30.8)
1400m - 1:52.57 - (31.0)
1800m - 2:23.70 - (31.1)
2200m - 2:55.05 - (31.3)
2600m - 3:26.44 - (31.3)
3000m - 3:57.77 - (31.3)
3400m - 4:29.12 - (31.3)
3800m - 5:00.38 - (31.2)
4200m - 5:31.60 - (31.2)
4600m - 6:03.05 - (31.4)
5000m - 6:34.31 - (31.2)
13.79 21
13 3 Lucas  MAKOWSKY CAN CAN 6:35.93200m - 19.35 - (19.3)
600m - 50.40 - (31.0)
1000m - 1:21.93 - (31.5)
1400m - 1:53.19 - (31.2)
1800m - 2:24.22 - (31.0)
2200m - 2:55.48 - (31.2)
2600m - 3:26.84 - (31.3)
3000m - 3:58.19 - (31.3)
3400m - 4:29.70 - (31.5)
3800m - 5:01.15 - (31.4)
4200m - 5:32.82 - (31.6)
4600m - 6:04.41 - (31.5)
5000m - 6:35.93 - (31.5)
15.41 18
14 14 Marco  WEBER GER GER 6:38.46200m - 19.53 - (19.5)
600m - 50.30 - (30.7)
1000m - 1:21.16 - (30.8)
1400m - 1:52.06 - (30.8)
1800m - 2:23.10 - (31.0)
2200m - 2:54.58 - (31.4)
2600m - 3:26.20 - (31.6)
3000m - 3:58.11 - (31.9)
3400m - 4:30.09 - (31.9)
3800m - 5:02.30 - (32.2)
4200m - 5:34.48 - (32.1)
4600m - 6:06.61 - (32.1)
5000m - 6:38.46 - (31.8)
17.94 16
15 18 Hiroki  HIRAKO JPN JPN 6:38.72200m - 18.64 - (18.6)
600m - 48.07 - (29.4)
1000m - 1:17.53 - (29.4)
1400m - 1:47.59 - (30.0)
1800m - 2:19.16 - (31.5)
2200m - 2:52.01 - (32.8)
2600m - 3:24.84 - (32.8)
3000m - 3:57.38 - (32.5)
3400m - 4:30.06 - (32.6)
3800m - 5:02.56 - (32.5)
4200m - 5:34.63 - (32.0)
4600m - 6:06.74 - (32.1)
5000m - 6:38.72 - (31.9)
18.20 14
16 9 Patrick  BECKERT GER GER 6:42.89200m - 20.20 - (20.2)
600m - 50.87 - (30.6)
1000m - 1:21.83 - (30.9)
1400m - 1:53.17 - (31.3)
1800m - 2:24.49 - (31.3)
2200m - 2:56.27 - (31.7)
2600m - 3:28.15 - (31.8)
3000m - 4:00.47 - (32.3)
3400m - 4:32.65 - (32.1)
3800m - 5:05.13 - (32.4)
4200m - 5:37.90 - (32.7)
4600m - 6:10.49 - (32.5)
5000m - 6:42.89 - (32.4)
22.37 12